TimeCDT,TemperatureF,Dew PointF,Humidity,Sea Level PressureIn,VisibilityMPH,Wind Direction,Wind SpeedMPH,Gust SpeedMPH,PrecipitationIn,Events,Conditions,WindDirDegrees,DateUTC
12:15 AM,74.1,63.3,69,29.91,10.0,Calm,Calm,-,N/A,,Clear,0,2013-06-27 05:15:00
12:35 AM,71.8,64.4,77,29.91,10.0,Calm,Calm,-,N/A,,Clear,0,2013-06-27 05:35:00
1:15 AM,74.8,63.0,66,29.91,10.0,Calm,Calm,-,N/A,,Clear,0,2013-06-27 06:15:00
1:35 AM,74.8,61.9,64,29.90,10.0,Calm,Calm,-,N/A,,Clear,0,2013-06-27 06:35:00
1:55 AM,75.0,61.9,64,29.90,10.0,SSE,3.5,-,N/A,,Clear,150,2013-06-27 06:55:00
2:15 AM,75.6,61.2,61,29.90,10.0,Calm,Calm,-,N/A,,Clear,0,2013-06-27 07:15:00
2:35 AM,74.8,61.7,64,29.91,10.0,South,3.5,-,N/A,,Clear,170,2013-06-27 07:35:00
2:55 AM,73.2,61.7,67,29.92,10.0,South,4.6,-,N/A,,Clear,190,2013-06-27 07:55:00
3:15 AM,70.9,62.8,75,29.92,10.0,South,3.5,-,N/A,,Clear,190,2013-06-27 08:15:00
3:35 AM,71.8,63.5,75,29.91,10.0,SSE,3.5,-,N/A,,Clear,160,2013-06-27 08:35:00
3:55 AM,71.8,63.3,75,29.91,10.0,Calm,Calm,-,N/A,,Clear,0,2013-06-27 08:55:00
4:15 AM,72.9,62.6,70,29.92,10.0,Calm,Calm,-,N/A,,Clear,0,2013-06-27 09:15:00
4:35 AM,71.6,63.3,75,29.93,10.0,South,3.5,-,N/A,,Clear,180,2013-06-27 09:35:00
4:55 AM,70.5,62.6,76,29.93,10.0,Calm,Calm,-,N/A,,Clear,0,2013-06-27 09:55:00
5:15 AM,70.5,63.0,77,29.92,10.0,Calm,Calm,-,N/A,,Clear,0,2013-06-27 10:15:00
5:35 AM,70.5,63.5,78,29.93,10.0,Calm,Calm,-,N/A,,Clear,0,2013-06-27 10:35:00
5:55 AM,70.7,63.0,76,29.94,10.0,Calm,Calm,-,N/A,,Scattered Clouds,0,2013-06-27 10:55:00
6:15 AM,72.1,63.1,73,29.94,10.0,Calm,Calm,-,N/A,,Mostly Cloudy,0,2013-06-27 11:15:00
6:35 AM,70.5,65.3,83,29.94,10.0,Calm,Calm,-,N/A,Rain,Light Rain,0,2013-06-27 11:35:00
6:55 AM,71.6,63.5,76,29.96,10.0,Calm,Calm,-,N/A,,Scattered Clouds,0,2013-06-27 11:55:00
7:15 AM,71.6,64.2,77,29.97,10.0,North,13.8,-,N/A,,Mostly Cloudy,10,2013-06-27 12:15:00
7:35 AM,70.3,63.7,79,29.96,10.0,ENE,6.9,-,N/A,,Scattered Clouds,60,2013-06-27 12:35:00
7:55 AM,70.7,63.9,79,29.93,10.0,ENE,6.9,-,N/A,Rain,Light Rain,60,2013-06-27 12:55:00
8:15 AM,73.6,66.0,77,29.93,10.0,Calm,Calm,-,N/A,,Clear,0,2013-06-27 13:15:00
8:35 AM,74.3,65.3,73,29.96,10.0,Calm,Calm,-,N/A,,Clear,0,2013-06-27 13:35:00
8:55 AM,74.3,65.8,75,29.98,10.0,SW,13.8,21.9,N/A,,Clear,230,2013-06-27 13:55:00
9:15 AM,73.0,64.6,75,29.98,10.0,WNW,4.6,-,N/A,,Clear,290,2013-06-27 14:15:00
9:35 AM,72.0,65.7,80,30.03,10.0,NNW,6.9,-,N/A,Rain,Rain,340,2013-06-27 14:35:00
9:55 AM,71.6,65.3,80,30.02,7.0,North,8.1,-,0.03,Rain-Thunderstorm,Rain,350,2013-06-27 14:55:00
10:15 AM,70.7,65.8,85,29.98,10.0,SE,5.8,-,0.02,Rain,Rain,130,2013-06-27 15:15:00
10:35 AM,70.9,66.2,85,29.99,10.0,NNE,3.5,-,N/A,Rain,Light Rain,30,2013-06-27 15:35:00
10:55 AM,70.7,66.7,87,30.00,10.0,North,6.9,-,0.04,Rain,Light Rain,10,2013-06-27 15:55:00
11:15 AM,70.3,66.0,86,30.04,10.0,NNW,10.4,-,N/A,Rain,Light Rain,340,2013-06-27 16:15:00
11:35 AM,70.3,65.3,84,29.98,10.0,NE,8.1,-,0.01,Rain-Thunderstorm,Light Thunderstorms and Rain,50,2013-06-27 16:35:00
11:55 AM,69.8,65.7,87,30.01,10.0,NNW,4.6,-,0.01,Rain,Light Rain,340,2013-06-27 16:55:00
12:15 PM,70.2,66.0,87,29.99,1.8,NNE,11.5,-,0.19,Rain,Heavy Rain,20,2013-06-27 17:15:00
12:35 PM,70.7,67.1,88,30.00,7.0,North,3.5,-,0.24,Rain-Thunderstorm,Light Thunderstorms and Rain,350,2013-06-27 17:35:00
12:55 PM,71.2,66.6,85,30.01,10.0,North,9.2,-,0.24,,Overcast,350,2013-06-27 17:55:00
1:15 PM,70.7,64.9,82,30.00,10.0,NNE,9.2,-,0.01,Thunderstorm,Overcast,20,2013-06-27 18:15:00
1:35 PM,70.2,64.8,83,30.00,10.0,NE,4.6,-,0.01,,Overcast,40,2013-06-27 18:35:00
1:55 PM,70.9,66.2,85,30.00,10.0,Calm,Calm,-,0.01,,Overcast,0,2013-06-27 18:55:00
2:15 PM,71.6,67.6,87,30.00,10.0,Calm,Calm,-,N/A,,Overcast,0,2013-06-27 19:15:00
2:35 PM,72.7,68.0,85,30.00,10.0,Calm,Calm,-,N/A,,Overcast,0,2013-06-27 19:35:00
2:55 PM,73.4,66.9,80,30.00,10.0,Calm,Calm,-,N/A,,Overcast,0,2013-06-27 19:55:00
3:15 PM,74.3,67.3,79,30.00,10.0,Calm,Calm,-,N/A,,Overcast,0,2013-06-27 20:15:00
3:35 PM,75.9,68.0,76,30.00,10.0,Calm,Calm,-,N/A,,Overcast,0,2013-06-27 20:35:00
3:55 PM,78.4,68.5,72,30.00,10.0,Calm,Calm,-,N/A,,Mostly Cloudy,0,2013-06-27 20:55:00
4:15 PM,80.1,68.2,67,30.00,10.0,Calm,Calm,-,N/A,,Mostly Cloudy,0,2013-06-27 21:15:00
4:35 PM,80.2,66.7,63,29.99,10.0,Calm,Calm,-,N/A,,Overcast,0,2013-06-27 21:35:00
4:55 PM,82.4,64.2,54,29.98,10.0,Calm,Calm,-,N/A,,Overcast,0,2013-06-27 21:55:00
5:15 PM,81.5,64.0,55,29.97,10.0,West,3.5,-,N/A,,Overcast,280,2013-06-27 22:15:00
5:35 PM,82.4,66.4,58,29.97,10.0,NW,6.9,-,N/A,,Mostly Cloudy,310,2013-06-27 22:35:00
5:55 PM,82.2,67.6,61,29.96,10.0,NW,9.2,-,N/A,,Mostly Cloudy,320,2013-06-27 22:55:00
6:15 PM,83.3,66.9,58,29.95,10.0,NNW,10.4,-,N/A,,Scattered Clouds,330,2013-06-27 23:15:00
6:35 PM,83.3,64.8,53,29.95,10.0,NW,6.9,-,N/A,,Clear,320,2013-06-27 23:35:00
6:55 PM,83.3,64.4,53,29.96,10.0,NNW,6.9,-,N/A,,Clear,330,2013-06-27 23:55:00
7:15 PM,82.9,66.9,58,29.95,10.0,NW,3.5,-,N/A,,Scattered Clouds,320,2013-06-28 00:15:00
7:35 PM,82.4,67.6,61,29.96,10.0,NW,4.6,-,N/A,,Scattered Clouds,320,2013-06-28 00:35:00
7:55 PM,81.7,67.8,63,29.96,10.0,Calm,Calm,-,N/A,,Scattered Clouds,0,2013-06-28 00:55:00
8:15 PM,80.4,67.8,65,29.95,10.0,NW,4.6,-,N/A,,Clear,320,2013-06-28 01:15:00
8:35 PM,78.8,67.1,67,29.95,10.0,NW,5.8,-,N/A,,Clear,320,2013-06-28 01:35:00
8:55 PM,77.7,64.0,63,29.95,10.0,NNW,5.8,-,N/A,,Clear,330,2013-06-28 01:55:00
9:15 PM,77.0,62.1,60,29.95,10.0,NNW,6.9,-,N/A,,Clear,340,2013-06-28 02:15:00
9:35 PM,76.6,60.8,58,29.96,10.0,NNW,6.9,-,N/A,,Clear,330,2013-06-28 02:35:00
9:55 PM,75.6,60.4,59,29.98,10.0,NW,3.5,-,N/A,,Clear,310,2013-06-28 02:55:00
10:15 PM,75.6,61.2,61,29.98,10.0,Calm,Calm,-,N/A,,Clear,0,2013-06-28 03:15:00
10:35 PM,73.9,61.9,66,29.98,10.0,Calm,Calm,-,N/A,,Clear,0,2013-06-28 03:35:00
10:55 PM,72.3,62.8,72,29.98,10.0,Calm,Calm,-,N/A,,Clear,0,2013-06-28 03:55:00
11:15 PM,71.6,63.3,75,29.98,10.0,Calm,Calm,-,N/A,,Clear,0,2013-06-28 04:15:00
11:35 PM,70.2,63.9,80,29.98,10.0,Calm,Calm,-,N/A,,Clear,0,2013-06-28 04:35:00
11:55 PM,72.5,63.3,73,29.98,10.0,WSW,4.6,-,N/A,,Clear,240,2013-06-28 04:55:00